This is the latest recevied weather packets stored in our database for station/object KA9CBS. If no packets are shown the sender has not sent any weather packets the latest 10 day(s).
| Time | Temp. | Humidity | Pressure | Rain* | Wind** | Luminosity | Snow |
|---|---|---|---|---|---|---|---|
| 1787683389 | 28.89° C | 49% | 1019.6 hPa | 0 mm | - | 698 W/m² | - |
| 1787683085 | 29.44° C | 51% | 1019.6 hPa | 0 mm | - | 696 W/m² | - |
| 1787682781 | 28.89° C | 51% | 1019.6 hPa | 0 mm | - | 661 W/m² | - |
| 1787682477 | 29.44° C | 53% | 1019.5 hPa | 0 mm | - | 635 W/m² | - |
| 1787682172 | 29.44° C | 54% | 1019.8 hPa | 0 mm | - | 626 W/m² | - |
| 1787681868 | 29.44° C | 56% | 1019.8 hPa | 0 mm | - | 676 W/m² | - |
| 1787681562 | 29.44° C | 53% | 1020 hPa | 0 mm | - | 663 W/m² | - |
| 1787681257 | 28.33° C | 57% | 1019.9 hPa | 0 mm | - | 630 W/m² | - |
| 1787680953 | 28.89° C | 55% | 1019.9 hPa | 0 mm | - | 622 W/m² | - |
| 1787680652 | 29.44° C | 57% | 1020.2 hPa | 0 mm | - | 636 W/m² | - |
| 1787680351 | 28.89° C | 57% | 1020.3 hPa | 0 mm | - | 638 W/m² | - |
| 1787680050 | 28.33° C | 60% | 1020 hPa | 0 mm | - | 652 W/m² | - |
| 1787679749 | 28.33° C | 58% | 1020.1 hPa | 0 mm | - | 690 W/m² | - |
| 1787679445 | 28.33° C | 60% | 1020.3 hPa | 0 mm | - | 699 W/m² | - |
| 1787679141 | 28.33° C | 59% | 1020.4 hPa | 0 mm | - | 679 W/m² | - |
| 1787678840 | 27.78° C | 63% | 1020.7 hPa | 0 mm | - | 622 W/m² | - |
| 1787678536 | 27.78° C | 59% | 1020.7 hPa | 0 mm | - | 647 W/m² | - |
| 1787678235 | 27.78° C | 61% | 1020.5 hPa | 0 mm | - | 620 W/m² | - |
| 1787677931 | 28.33° C | 56% | 1020.5 hPa | 0 mm | - | 671 W/m² | - |
| 1787677631 | 28.33° C | 58% | 1020.6 hPa | 0 mm | - | 665 W/m² | - |
| 1787677329 | 28.33° C | 61% | 1020.9 hPa | 0 mm | - | 635 W/m² | - |
| 1787677023 | 28.89° C | 59% | 1020.8 hPa | 0 mm | - | 629 W/m² | - |
| 1787676719 | 28.33° C | 61% | 1020.8 hPa | 0 mm | - | 642 W/m² | - |
| 1787676414 | 27.78° C | 62% | 1021 hPa | 0 mm | - | 635 W/m² | - |
| 1787676110 | 27.78° C | 63% | 1021.1 hPa | 0 mm | - | 624 W/m² | - |
* Rain latest hour (hover to see other rain measurements)
** Current wind speed in m/s (hover to see current wind gust speed)